N172SP KOLV-KAWM

Flight info

Callsign N172SP
Flight time 0h 29m
Altitude 3000
Route KOLV KAWM
Aircraft C172/L-V/N

Departure

Time 2026-04-12 03:19
Airport Olive Branch Airport (KOLV)

Arrival

Time 2026-04-12 03:48
Airport West Memphis Municipal Airport (KAWM)
Time Latitude Longitude Altitude Speed Heading
2026-04-12 03:03 34.97781 -89.78949 402 ft 0 kts
2026-04-12 03:12 34.97803 -89.78950 402 ft 5 kts 355°
2026-04-12 03:12 34.97821 -89.78951 402 ft 0 kts 358°
2026-04-12 03:12 34.97837 -89.78937 402 ft 7 kts 49°
2026-04-12 03:12 34.97879 -89.78910 402 ft 6 kts
2026-04-12 03:13 34.97925 -89.78911 402 ft 6 kts 358°
2026-04-12 03:13 34.97971 -89.78912 403 ft 6 kts 358°
2026-04-12 03:13 34.98035 -89.78912 403 ft 11 kts
2026-04-12 03:13 34.98112 -89.78911 404 ft 9 kts
2026-04-12 03:14 34.98146 -89.78893 404 ft 4 kts 77°
2026-04-12 03:14 34.98150 -89.78842 404 ft 7 kts 69°
2026-04-12 03:14 34.98203 -89.78823 403 ft 9 kts 358°
2026-04-12 03:14 34.98280 -89.78825 403 ft 12 kts
2026-04-12 03:15 34.98376 -89.78826 403 ft 14 kts 356°
2026-04-12 03:15 34.98489 -89.78826 403 ft 17 kts
2026-04-12 03:15 34.98620 -89.78828 402 ft 18 kts 357°
2026-04-12 03:15 34.98685 -89.78822 402 ft 5 kts 36°
2026-04-12 03:16 34.98694 -89.78792 402 ft 0 kts 89°
2026-04-12 03:17 34.98695 -89.78789 402 ft 4 kts 87°
2026-04-12 03:17 34.98690 -89.78712 403 ft 7 kts 123°
2026-04-12 03:18 34.98618 -89.78690 403 ft 24 kts 176°
2026-04-12 03:18 34.98274 -89.78694 422 ft 66 kts 179°
2026-04-12 03:18 34.97827 -89.78747 612 ft 66 kts 184°
2026-04-12 03:18 34.97387 -89.78860 812 ft 65 kts 189°
2026-04-12 03:19 34.96947 -89.78982 1002 ft 63 kts 187°
2026-04-12 03:19 34.96551 -89.79256 1138 ft 78 kts 234°
2026-04-12 03:19 34.96458 -89.79909 1316 ft 84 kts 262°
2026-04-12 03:19 34.96538 -89.80654 1447 ft 91 kts 274°
2026-04-12 03:20 34.96603 -89.81426 1615 ft 90 kts 272°
2026-04-12 03:20 34.96684 -89.82193 1762 ft 94 kts 271°
2026-04-12 03:20 34.96810 -89.82961 1952 ft 91 kts 276°
2026-04-12 03:20 34.96952 -89.83734 2086 ft 95 kts 274°
2026-04-12 03:21 34.97054 -89.84509 2279 ft 92 kts 273°
2026-04-12 03:21 34.97155 -89.85293 2431 ft 94 kts 273°
2026-04-12 03:21 34.97255 -89.86078 2598 ft 94 kts 273°
2026-04-12 03:21 34.97356 -89.86860 2768 ft 92 kts 272°
2026-04-12 03:22 34.97459 -89.87641 2913 ft 95 kts 274°
2026-04-12 03:22 34.97587 -89.88427 3012 ft 98 kts 276°
2026-04-12 03:22 34.97650 -89.89254 3068 ft 98 kts 266°
2026-04-12 03:22 34.97728 -89.90105 3071 ft 106 kts 271°
2026-04-12 03:23 34.97836 -89.91015 3070 ft 110 kts 272°
2026-04-12 03:23 34.97943 -89.91952 3068 ft 112 kts 269°
2026-04-12 03:23 34.98048 -89.92902 3065 ft 114 kts 270°
2026-04-12 03:23 34.98156 -89.93870 3064 ft 114 kts 270°
2026-04-12 03:24 34.98260 -89.94826 3068 ft 115 kts 269°
2026-04-12 03:24 34.98365 -89.95795 3065 ft 115 kts 270°
2026-04-12 03:24 34.98467 -89.96755 3063 ft 114 kts 269°
2026-04-12 03:24 34.98570 -89.97726 3065 ft 114 kts 270°
2026-04-12 03:25 34.98677 -89.98678 3065 ft 114 kts 269°
2026-04-12 03:25 34.98785 -89.99644 3063 ft 114 kts 269°
2026-04-12 03:25 34.98896 -90.00600 3064 ft 114 kts 270°
2026-04-12 03:25 34.99004 -90.01547 3062 ft 113 kts 270°
2026-04-12 03:26 34.99112 -90.02507 3062 ft 114 kts 270°
2026-04-12 03:26 34.99221 -90.03460 3061 ft 114 kts 270°
2026-04-12 03:26 34.99332 -90.04426 3063 ft 114 kts 270°
2026-04-12 03:26 34.99444 -90.05383 3062 ft 114 kts 270°
2026-04-12 03:27 34.99559 -90.06347 3063 ft 115 kts 270°
2026-04-12 03:27 34.99676 -90.07308 3062 ft 114 kts 269°
2026-04-12 03:27 34.99793 -90.08257 3065 ft 114 kts 270°
2026-04-12 03:27 34.99908 -90.09226 3066 ft 114 kts 270°
2026-04-12 03:28 35.00030 -90.10182 3058 ft 115 kts 271°
2026-04-12 03:28 35.00278 -90.11131 3029 ft 119 kts 289°
2026-04-12 03:28 35.00869 -90.11846 2995 ft 122 kts 333°
2026-04-12 03:28 35.01706 -90.11977 2963 ft 122 kts 358°
2026-04-12 03:29 35.02527 -90.11984 3005 ft 114 kts
2026-04-12 03:29 35.03330 -90.11955 2983 ft 114 kts
2026-04-12 03:29 35.04121 -90.11959 2985 ft 113 kts
2026-04-12 03:29 35.04903 -90.11962 2984 ft 112 kts 360°
2026-04-12 03:30 35.05690 -90.11966 2981 ft 112 kts
2026-04-12 03:30 35.06478 -90.11974 2985 ft 112 kts
2026-04-12 03:30 35.07254 -90.11980 2981 ft 112 kts
2026-04-12 03:30 35.08044 -90.11998 2992 ft 113 kts
2026-04-12 03:31 35.08828 -90.12015 2990 ft 114 kts
2026-04-12 03:31 35.09626 -90.12030 2995 ft 114 kts
2026-04-12 03:31 35.10427 -90.12035 2983 ft 114 kts
2026-04-12 03:31 35.11224 -90.12037 2993 ft 114 kts
2026-04-12 03:32 35.12014 -90.12036 2998 ft 115 kts
2026-04-12 03:32 35.12826 -90.12035 3001 ft 116 kts
2026-04-12 03:32 35.13633 -90.12030 3004 ft 116 kts
2026-04-12 03:32 35.14440 -90.12023 2996 ft 117 kts
2026-04-12 03:33 35.15259 -90.12020 2989 ft 116 kts
2026-04-12 03:33 35.16067 -90.12022 2994 ft 116 kts
2026-04-12 03:33 35.16873 -90.12026 2995 ft 116 kts
2026-04-12 03:33 35.17685 -90.12031 2991 ft 116 kts
2026-04-12 03:34 35.18500 -90.12040 2995 ft 116 kts
2026-04-12 03:34 35.19314 -90.12048 2995 ft 116 kts
2026-04-12 03:34 35.20128 -90.12048 2996 ft 115 kts
2026-04-12 03:34 35.20923 -90.12071 2845 ft 118 kts 357°
2026-04-12 03:35 35.21727 -90.12133 2722 ft 117 kts 357°
2026-04-12 03:35 35.22548 -90.12189 2573 ft 115 kts 356°
2026-04-12 03:35 35.23356 -90.12275 2400 ft 117 kts 356°
2026-04-12 03:35 35.24163 -90.12331 2271 ft 113 kts 358°
2026-04-12 03:36 35.24949 -90.12334 2101 ft 117 kts 359°
2026-04-12 03:36 35.25746 -90.12414 2085 ft 106 kts 355°
2026-04-12 03:36 35.26477 -90.12497 2041 ft 102 kts 356°
2026-04-12 03:36 35.27184 -90.12532 2007 ft 99 kts 360°
2026-04-12 03:37 35.27833 -90.12710 1997 ft 96 kts 326°
2026-04-12 03:37 35.28268 -90.13291 1993 ft 90 kts 279°
2026-04-12 03:37 35.28431 -90.14020 1992 ft 89 kts 273°
2026-04-12 03:37 35.28539 -90.14759 2009 ft 87 kts 268°
2026-04-12 03:38 35.28636 -90.15494 2006 ft 89 kts 271°
2026-04-12 03:38 35.28757 -90.16228 2031 ft 87 kts 268°
2026-04-12 03:38 35.28853 -90.16956 2049 ft 86 kts 266°
2026-04-12 03:38 35.28970 -90.17678 2065 ft 87 kts 271°
2026-04-12 03:39 35.29125 -90.18404 2079 ft 86 kts 270°
2026-04-12 03:39 35.29231 -90.19128 2073 ft 86 kts 267°
2026-04-12 03:39 35.29310 -90.19849 2059 ft 85 kts 262°
2026-04-12 03:39 35.29090 -90.20465 2000 ft 74 kts 219°
2026-04-12 03:40 35.28739 -90.20875 1976 ft 72 kts 204°
2026-04-12 03:40 35.28368 -90.21287 1954 ft 73 kts 220°
2026-04-12 03:40 35.28023 -90.21755 1911 ft 72 kts 210°
2026-04-12 03:40 35.27634 -90.22124 1921 ft 72 kts 207°
2026-04-12 03:41 35.27256 -90.22447 2041 ft 63 kts 194°
2026-04-12 03:41 35.26805 -90.22715 2017 ft 67 kts 199°
2026-04-12 03:41 35.26405 -90.22993 1980 ft 73 kts 200°
2026-04-12 03:41 35.25985 -90.23277 2078 ft 62 kts 192°
2026-04-12 03:42 35.25514 -90.23380 2027 ft 67 kts 180°
2026-04-12 03:42 35.25067 -90.23382 2032 ft 67 kts 175°
2026-04-12 03:42 35.24607 -90.23423 2053 ft 66 kts 177°
2026-04-12 03:42 35.24160 -90.23431 2033 ft 65 kts 177°
2026-04-12 03:43 35.23692 -90.23484 1984 ft 64 kts 180°
2026-04-12 03:43 35.23226 -90.23480 1903 ft 68 kts 171°
2026-04-12 03:43 35.22774 -90.23467 1832 ft 60 kts 171°
2026-04-12 03:43 35.22379 -90.23402 1746 ft 57 kts 172°
2026-04-12 03:44 35.21971 -90.23418 1653 ft 57 kts 174°
2026-04-12 03:44 35.21562 -90.23426 1584 ft 57 kts 176°
2026-04-12 03:44 35.21154 -90.23390 1491 ft 59 kts 156°
2026-04-12 03:44 35.20754 -90.23292 1407 ft 62 kts 174°
2026-04-12 03:45 35.20341 -90.23248 1335 ft 62 kts 179°
2026-04-12 03:45 35.19920 -90.23316 1263 ft 60 kts 176°
2026-04-12 03:45 35.19497 -90.23346 1171 ft 62 kts 182°
2026-04-12 03:45 35.19071 -90.23357 1084 ft 60 kts 174°
2026-04-12 03:46 35.18632 -90.23355 1023 ft 61 kts 181°
2026-04-12 03:46 35.18205 -90.23425 942 ft 64 kts 175°
2026-04-12 03:46 35.17771 -90.23439 907 ft 61 kts 177°
2026-04-12 03:46 35.17344 -90.23428 882 ft 61 kts 172°
2026-04-12 03:47 35.16921 -90.23424 853 ft 59 kts 173°
2026-04-12 03:47 35.16483 -90.23412 718 ft 63 kts 177°
2026-04-12 03:47 35.16042 -90.23410 623 ft 63 kts 176°
2026-04-12 03:47 35.15597 -90.23422 505 ft 64 kts 178°
2026-04-12 03:48 35.15150 -90.23425 404 ft 64 kts 176°
2026-04-12 03:48 35.14708 -90.23431 353 ft 57 kts 176°
2026-04-12 03:48 35.14317 -90.23435 255 ft 56 kts 176°
2026-04-12 03:48 35.13954 -90.23440 213 ft 41 kts 179°
2026-04-12 03:49 35.13741 -90.23438 213 ft 14 kts 174°
2026-04-12 03:49 35.13619 -90.23442 213 ft 21 kts 180°
2026-04-12 03:49 35.13554 -90.23417 213 ft 11 kts 118°
2026-04-12 03:49 35.13540 -90.23344 213 ft 0 kts 89°